TimeEDT,TemperatureF,Dew PointF,Humidity,Sea Level PressureIn,VisibilityMPH,Wind Direction,Wind SpeedMPH,Gust SpeedMPH,PrecipitationIn,Events,Conditions,WindDirDegrees,DateUTC
12:15 AM,28.4,23.0,80,30.30,10.0,Calm,Calm,-,N/A,,Clear,0,2013-03-29 04:15:00
12:35 AM,26.6,23.0,86,30.30,10.0,Calm,Calm,-,N/A,,Clear,0,2013-03-29 04:35:00
12:55 AM,26.6,23.0,86,30.30,10.0,Calm,Calm,-,N/A,,Clear,0,2013-03-29 04:55:00
1:15 AM,26.6,23.0,86,30.30,10.0,Calm,Calm,-,N/A,,Clear,0,2013-03-29 05:15:00
1:35 AM,26.6,23.0,86,30.30,10.0,Calm,Calm,-,N/A,,Clear,0,2013-03-29 05:35:00
1:55 AM,24.8,21.2,86,30.31,10.0,Calm,Calm,-,N/A,,Clear,0,2013-03-29 05:55:00
2:15 AM,24.8,21.2,86,30.31,10.0,Calm,Calm,-,N/A,,Clear,0,2013-03-29 06:15:00
2:35 AM,24.8,21.2,86,30.31,10.0,Calm,Calm,-,N/A,,Clear,0,2013-03-29 06:35:00
2:55 AM,24.8,21.2,86,30.31,10.0,Calm,Calm,-,N/A,,Clear,0,2013-03-29 06:55:00
3:15 AM,26.6,21.2,80,30.31,10.0,Calm,Calm,-,N/A,,Clear,0,2013-03-29 07:15:00
3:35 AM,24.8,21.2,86,30.31,10.0,Calm,Calm,-,N/A,,Clear,0,2013-03-29 07:35:00
3:55 AM,24.8,21.2,86,30.30,10.0,Calm,Calm,-,N/A,,Clear,0,2013-03-29 07:55:00
4:15 AM,24.8,21.2,86,30.30,10.0,Calm,Calm,-,N/A,,Clear,0,2013-03-29 08:15:00
4:35 AM,23.0,21.2,93,30.30,10.0,Calm,Calm,-,N/A,,Clear,0,2013-03-29 08:35:00
4:55 AM,23.0,21.2,93,30.30,10.0,Calm,Calm,-,N/A,,Clear,0,2013-03-29 08:55:00
5:15 AM,24.8,21.2,86,30.30,10.0,Calm,Calm,-,N/A,,Clear,0,2013-03-29 09:15:00
5:35 AM,23.0,21.2,93,30.31,10.0,Calm,Calm,-,N/A,,Clear,0,2013-03-29 09:35:00
5:55 AM,23.0,21.2,93,30.31,10.0,Calm,Calm,-,N/A,,Clear,0,2013-03-29 09:55:00
6:15 AM,23.0,21.2,93,30.31,10.0,Calm,Calm,-,N/A,,Clear,0,2013-03-29 10:15:00
6:35 AM,23.0,21.2,93,30.31,10.0,Calm,Calm,-,N/A,,Clear,0,2013-03-29 10:35:00
6:55 AM,24.8,21.2,86,30.32,10.0,Calm,Calm,-,N/A,,Clear,0,2013-03-29 10:55:00
7:15 AM,24.8,21.2,86,30.32,10.0,Calm,Calm,-,N/A,,Clear,0,2013-03-29 11:15:00
7:35 AM,24.8,19.4,80,30.32,10.0,Calm,Calm,-,N/A,,Clear,0,2013-03-29 11:35:00
7:55 AM,24.8,21.2,86,30.32,10.0,East,4.6,-,N/A,,Clear,80,2013-03-29 11:55:00
8:15 AM,28.4,23.0,80,30.32,10.0,ENE,3.5,-,N/A,,Clear,60,2013-03-29 12:15:00
8:35 AM,28.4,23.0,80,30.32,10.0,ENE,5.8,-,N/A,,Clear,70,2013-03-29 12:35:00
8:55 AM,32.0,24.8,75,30.32,10.0,ENE,4.6,-,N/A,,Clear,70,2013-03-29 12:55:00
9:15 AM,33.8,24.8,70,30.32,10.0,ENE,3.5,-,N/A,,Clear,60,2013-03-29 13:15:00
9:35 AM,35.6,24.8,65,30.32,10.0,East,3.5,-,N/A,,Clear,90,2013-03-29 13:35:00
9:55 AM,37.4,26.6,65,30.32,10.0,ENE,3.5,-,N/A,,Clear,70,2013-03-29 13:55:00
10:15 AM,39.2,24.8,56,30.32,10.0,Calm,Calm,-,N/A,,Clear,0,2013-03-29 14:15:00
10:35 AM,42.8,24.8,49,30.32,10.0,Calm,Calm,-,N/A,,Clear,0,2013-03-29 14:35:00
10:55 AM,44.6,24.8,46,30.32,10.0,Calm,Calm,-,N/A,,Clear,0,2013-03-29 14:55:00
11:15 AM,46.4,24.8,43,30.32,10.0,SSW,6.9,-,N/A,,Clear,210,2013-03-29 15:15:00
11:35 AM,48.2,21.2,34,30.32,10.0,WSW,6.9,-,N/A,,Clear,240,2013-03-29 15:35:00
11:55 AM,48.2,21.2,34,30.31,10.0,NW,4.6,-,N/A,,Clear,320,2013-03-29 15:55:00
12:15 PM,48.2,19.4,32,30.31,10.0,Variable,6.9,-,N/A,,Partly Cloudy,0,2013-03-29 16:15:00
12:55 PM,51.8,19.4,28,30.29,10.0,Variable,4.6,-,N/A,,Clear,0,2013-03-29 16:55:00
1:15 PM,51.8,21.2,30,30.28,10.0,NW,8.1,-,N/A,,Partly Cloudy,310,2013-03-29 17:15:00
1:35 PM,50.0,21.2,32,30.27,10.0,Variable,5.8,-,N/A,,Scattered Clouds,0,2013-03-29 17:35:00
1:55 PM,50.0,21.2,32,30.28,10.0,West,9.2,-,N/A,,Partly Cloudy,280,2013-03-29 17:55:00
2:15 PM,50.0,24.8,37,30.27,10.0,West,8.1,-,N/A,,Mostly Cloudy,270,2013-03-29 18:15:00
2:35 PM,50.0,21.2,32,30.27,10.0,West,9.2,-,N/A,,Overcast,270,2013-03-29 18:35:00
2:55 PM,50.0,19.4,30,30.26,10.0,West,9.2,-,N/A,,Mostly Cloudy,260,2013-03-29 18:55:00
3:15 PM,50.0,19.4,30,30.26,10.0,West,10.4,-,N/A,,Partly Cloudy,260,2013-03-29 19:15:00
3:35 PM,48.2,19.4,32,30.25,10.0,WSW,16.1,-,N/A,,Partly Cloudy,250,2013-03-29 19:35:00
3:55 PM,48.2,21.2,34,30.25,10.0,WSW,10.4,-,N/A,,Mostly Cloudy,240,2013-03-29 19:55:00
4:15 PM,48.2,24.8,40,30.25,10.0,West,8.1,-,N/A,,Mostly Cloudy,260,2013-03-29 20:15:00
4:35 PM,48.2,28.4,46,30.25,10.0,WSW,16.1,-,N/A,,Overcast,240,2013-03-29 20:35:00
4:55 PM,44.6,30.2,57,30.25,10.0,WSW,12.7,-,N/A,,Scattered Clouds,240,2013-03-29 20:55:00
5:15 PM,44.6,33.8,66,30.26,10.0,WSW,10.4,-,N/A,,Partly Cloudy,240,2013-03-29 21:15:00
5:35 PM,42.8,33.8,70,30.26,10.0,WSW,10.4,-,N/A,,Mostly Cloudy,240,2013-03-29 21:35:00
5:55 PM,42.8,33.8,70,30.26,10.0,West,6.9,-,N/A,,Mostly Cloudy,270,2013-03-29 21:55:00
6:15 PM,42.8,33.8,70,30.26,10.0,West,8.1,-,N/A,,Scattered Clouds,260,2013-03-29 22:15:00
6:35 PM,42.8,33.8,70,30.26,10.0,West,4.6,-,N/A,,Mostly Cloudy,280,2013-03-29 22:35:00
6:55 PM,41.0,35.6,81,30.26,10.0,WNW,6.9,-,N/A,,Mostly Cloudy,290,2013-03-29 22:55:00
7:15 PM,41.0,35.6,81,30.25,10.0,WNW,5.8,-,N/A,,Mostly Cloudy,290,2013-03-29 23:15:00
7:35 PM,39.2,35.6,87,30.25,10.0,NW,5.8,-,N/A,,Mostly Cloudy,310,2013-03-29 23:35:00
7:55 PM,39.2,35.6,87,30.25,10.0,WNW,5.8,-,N/A,,Mostly Cloudy,300,2013-03-29 23:55:00
8:15 PM,39.2,33.8,81,30.25,10.0,WNW,8.1,-,N/A,,Mostly Cloudy,300,2013-03-30 00:15:00
8:35 PM,39.2,33.8,81,30.26,10.0,West,5.8,-,N/A,,Overcast,280,2013-03-30 00:35:00
8:55 PM,39.2,33.8,81,30.26,10.0,WNW,4.6,-,N/A,,Overcast,290,2013-03-30 00:55:00
9:15 PM,39.2,33.8,81,30.26,10.0,West,3.5,-,N/A,,Overcast,280,2013-03-30 01:15:00
9:35 PM,39.2,33.8,81,30.26,10.0,Calm,Calm,-,N/A,,Overcast,0,2013-03-30 01:35:00
9:55 PM,39.2,33.8,81,30.26,10.0,Calm,Calm,-,N/A,,Overcast,0,2013-03-30 01:55:00
10:15 PM,39.2,33.8,81,30.26,10.0,Calm,Calm,-,N/A,,Overcast,0,2013-03-30 02:15:00
10:35 PM,39.2,35.6,87,30.27,10.0,Calm,Calm,-,N/A,Rain,Light Rain,0,2013-03-30 02:35:00
10:55 PM,39.2,35.6,87,30.27,10.0,Calm,Calm,-,N/A,,Light Drizzle,0,2013-03-30 02:55:00
11:15 PM,37.4,35.6,93,30.27,10.0,Calm,Calm,-,N/A,,Light Drizzle,0,2013-03-30 03:15:00
11:35 PM,37.4,35.6,93,30.26,7.0,Calm,Calm,-,N/A,Rain,Light Rain,0,2013-03-30 03:35:00
11:55 PM,37.4,35.6,93,30.25,10.0,East,4.6,-,N/A,,Light Drizzle,90,2013-03-30 03:55:00